Lorain / Elyria, OH

7:37 PM EDT on August 18, 2019 (GMT -0400)
Lorain County Regional

Weather History for KLPR - July, 2019

Change the Weather History Date:

Monday, July 22, 2019

  Actual Average (WUND) Record (WUND)
Temperature  
Mean Temperature 68 °F -  
Max Temperature 75 °F - - (-1)
Min Temperature 64 °F - - (-1)
Cooling Degree Days 4    
Growing Degree Days 18 (Base 50)    
Moisture  
Dew Point 59 °F    
Average Humidity 73    
Maximum Humidity 88    
Minimum Humidity 49    
Precipitation  
Precipitation 0.89 in - - ()
Sea Level Pressure  
Sea Level Pressure 29.92 in    
Wind  
Wind Speed 8 mph (NE)    
Max Wind Speed 15 mph    
Max Gust Speed 21 mph    
Visibility 7 miles    
Events Fog , Rain    
Averages and records for this station are not official NWS values.
T = Trace of Precipitation, MM = Missing Value Source: NWS Daily Summary

Daily Weather History Graph

Daily Weather History Graph

Search for Another Location

Airport or City:

Astronomy

Jul. 22, 2019 Rise Set
Actual Time 6:14 AM EDT 8:55 PM EDT
Civil Twilight 5:42 AM EDT 9:27 PM EDT
Nautical Twilight 5:01 AM EDT 10:07 PM EDT
Astronomical Twilight 4:15 AM EDT 10:53 PM EDT
Moon No Moon Rise 11:32 AM EDT (7/22)
Length of Visible Light 15h 45m
Length of Day
14h 41m
Waning Gibbous, 72% of the Moon is Illuminated
Jul 22
Waning Gibbous
Jul 24
Last Quarter
Jul 31
New
Aug 7
First Quarter
Aug 15
Full

Hourly Weather History & Observations

Time (EDT) Temp. Dew Point Humidity Pressure Visibility Wind Dir Wind Speed Gust Speed Precip Events Conditions
12:53 AM 69.1 °F 62.1 °F 78% 29.91 in 10.0 mi ENE 5.8 mph - 0.03 in   Overcast
1:53 AM 69.1 °F 60.1 °F 73% 29.91 in 10.0 mi NE 5.8 mph - N/A   Overcast
2:53 AM 69.1 °F 59.0 °F 70% 29.87 in 10.0 mi East 6.9 mph - N/A   Overcast
3:53 AM 69.1 °F 57.0 °F 65% 29.88 in 10.0 mi ENE 5.8 mph - N/A   Overcast
4:53 AM 68.0 °F 57.9 °F 70% 29.87 in 10.0 mi East 3.5 mph - N/A   Overcast
5:53 AM 69.1 °F 59.0 °F 70% 29.88 in 10.0 mi Calm Calm - 0.00 in Rain Light Rain
6:53 AM 66.9 °F 61.0 °F 81% 29.88 in 8.0 mi NE 12.7 mph - 0.00 in Rain Light Rain
7:03 AM 66.0 °F 60.1 °F 81% 29.90 in 5.0 mi NE 15.0 mph - 0.01 in Rain Light Rain
7:21 AM 66.0 °F 60.1 °F 81% 29.90 in 1.8 mi NE 11.5 mph - 0.06 in Rain Heavy Rain
7:50 AM 64.4 °F 60.8 °F 88% 29.92 in 0.5 mi NE 11.5 mph - 0.45 in Fog , Rain Heavy Rain
7:51 AM 64.0 °F 59.0 °F 84% 29.91 in 0.5 mi NE 11.5 mph - 0.48 in Rain Heavy Rain
8:08 AM 64.9 °F 60.1 °F 84% 29.92 in 1.2 mi NE 8.1 mph - 0.19 in Rain Heavy Rain
8:23 AM 64.9 °F 60.1 °F 84% 29.92 in 2.0 mi NE 9.2 mph - 0.28 in Rain Rain
8:33 AM 64.9 °F 60.1 °F 84% 29.92 in 4.0 mi NE 11.5 mph - 0.29 in Rain Rain
8:53 AM 64.9 °F 59.0 °F 81% 29.92 in 6.0 mi NE 15.0 mph - 0.32 in Rain Light Rain
9:34 AM 64.9 °F 60.1 °F 84% 29.94 in 2.5 mi East 8.1 mph - 0.04 in Rain Light Rain
9:45 AM 64.9 °F 60.1 °F 84% 29.94 in 2.5 mi ENE 9.2 mph - 0.05 in Rain Light Rain
9:51 AM 66.2 °F 60.8 °F 83% 29.94 in 4.0 mi ENE 9.2 mph - 0.05 in Rain Light Rain
9:53 AM 66.0 °F 60.1 °F 81% 29.93 in 4.0 mi NE 8.1 mph - 0.06 in Rain Light Rain
9:59 AM 66.0 °F 60.1 °F 81% 29.94 in 4.0 mi NE 6.9 mph - 0.00 in Rain Light Rain
10:13 AM 64.9 °F 60.1 °F 84% 29.94 in 3.0 mi NNE 11.5 mph - 0.00 in Rain Light Rain
10:21 AM 64.9 °F 60.1 °F 84% 29.94 in 2.5 mi NE 11.5 mph - 0.00 in Rain Light Rain
10:26 AM 64.9 °F 60.1 °F 84% 29.93 in 3.0 mi NE 11.5 mph - 0.00 in Rain Light Rain
10:53 AM 66.9 °F 60.1 °F 79% 29.93 in 10.0 mi ENE 9.2 mph - 0.00 in   Overcast
11:01 AM 66.9 °F 61.0 °F 81% 29.93 in 10.0 mi East 10.4 mph - N/A   Overcast
11:53 AM 69.1 °F 60.1 °F 73% 29.93 in 10.0 mi NE 4.6 mph - N/A   Overcast
12:53 PM 72.0 °F 61.0 °F 68% 29.92 in 10.0 mi NNE 5.8 mph - N/A   Clear
1:53 PM 73.0 °F 61.0 °F 66% 29.91 in 10.0 mi NNE 9.2 mph - N/A   Mostly Cloudy
2:53 PM 73.9 °F 59.0 °F 59% 29.91 in 10.0 mi NNW 9.2 mph - N/A   Scattered Clouds
3:53 PM 73.9 °F 57.9 °F 57% 29.91 in 10.0 mi North 11.5 mph - N/A   Partly Cloudy
4:53 PM 73.0 °F 57.0 °F 57% 29.91 in 10.0 mi North 9.2 mph - N/A   Clear
5:53 PM 73.0 °F 55.9 °F 55% 29.92 in 10.0 mi North 9.2 mph - N/A   Clear
6:53 PM 73.0 °F 57.0 °F 57% 29.91 in 10.0 mi North 6.9 mph - N/A   Scattered Clouds
7:53 PM 72.0 °F 54.0 °F 53% 29.93 in 10.0 mi North 9.2 mph - 0.00 in   Overcast
8:53 PM 70.0 °F 55.9 °F 61% 29.94 in 10.0 mi NNE 13.8 mph - N/A   Scattered Clouds
9:53 PM 69.1 °F 53.1 °F 57% 29.96 in 10.0 mi North 12.7 mph 20.7 mph N/A   Clear
10:53 PM 68.0 °F 48.0 °F 49% 29.97 in 10.0 mi North 11.5 mph - N/A   Clear
11:53 PM 66.9 °F 48.0 °F 51% 29.97 in 10.0 mi North 10.4 mph - N/A   Clear